Miscellaneous Local Product
Issued by NWS Hastings, NE

Home | Current Version | Previous Version | Text Only | Print | Product List | Glossary Off
Versions: 1 2 3 4 5 6 7 8 9 10 11 12 13 14 15 16 17 18 19 20 21 22 23 24 25 26 27 28 29 30 31 32 33 34 35 36 37 38 39 40 41 42 43 44 45 46 47 48 49 50

000
AXUS43 KGID 250502
MISGRI

GID CWA HOURLY WEATHER ROUNDUP
NATIONAL WEATHER SERVICE HASTINGS NE
1100 PM CST FRI FEB 24 2017

NOTE: "FAIR" INDICATES FEW OR NO CLOUDS BELOW 12,000 FEET WITH NO
SIGNIFICANT WEATHER AND/OR OBSTRUCTIONS TO VISIBILITY.

...SOUTH CENTRAL NEBRASKA...

CITY           SKY/WX    TMP DP  RH WIND       PRES   REMARKS
GRAND ISLAND   CLEAR     18  13  80 NW10      30.12S WCI   6
HASTINGS       CLEAR     18  12  77 NW15      30.13S WCI   4
KEARNEY        CLOUDY    18   9  68 NW8       30.13S WCI   7
ORD            CLEAR     15   8  73 W9        30.12R WCI   3
YORK           CLEAR     23  16  74 NW14      30.10R WCI  11
AURORA         CLEAR     19  14  78 NW8       30.11S WCI   9
LEXINGTON      CLOUDY    17  11  78 W10       30.14S WCI   4
HOLDREGE       CLOUDY    16  11  82 NW7       30.13F WCI   6
HEBRON         PTCLDY    22  15  76 NW12      30.12S WCI  10

...NEBRASKA PANHANDLE...

CITY           SKY/WX    TMP DP  RH WIND       PRES   REMARKS
CHADRON        CLOUDY     4   0  83 W6        30.07F WCI  -7
ALLIANCE       FOG        0  -3  87 W5        30.05S VSB 3/4 WCI -10
SCOTTSBLUFF    CLOUDY    11   8  88 E6        30.05F FOG     WCI   1
SIDNEY         CLOUDY     5   1  83 W10       30.06R WCI -10

...WESTERN AND NORTH CENTRAL NEBRASKA...

CITY           SKY/WX    TMP DP  RH WIND       PRES   REMARKS
VALENTINE      CLOUDY     2  -2  83 SW8       30.12S WCI -12
AINSWORTH      CLOUDY     9   6  89 W8        30.10S WCI  -3
ONEILL         CLOUDY    18  12  77 NW10      30.11R WCI   6
BROKEN BOW     CLOUDY    17  10  74 NW14      30.11S WCI   3
IMPERIAL       CLOUDY    18  13  80 NW6       30.13S WCI  10
NORTH PLATTE   CLOUDY    12   7  80 NW8       30.15R WCI   0
MCCOOK         CLOUDY    17  12  80 W8        30.17R WCI   7

...EASTERN NEBRASKA...

CITY           SKY/WX    TMP DP  RH WIND       PRES   REMARKS
NORFOLK        CLEAR     21  12  68 NW13      30.08R WCI   9
SO SIOUX CITY  CLEAR     22  14  71 NW18      30.05R WCI   7
TEKAMAH        CLEAR     21  14  74 NW15      30.05R WCI   8
COLUMBUS       CLOUDY    25  14  63 NW20      30.09R WCI  11
ALBION         CLEAR     23  13  64 NW14      30.10R WCI  11
OMAHA EPPLEY   PTCLDY    23  15  71 NW12      30.04R WCI  12
OFFUTT AFB     CLEAR     22  14  72 NW15      30.04R WCI   9
MILLARD        CLEAR     28  19  69 NW13      30.06R WCI  17
LINCOLN        PTCLDY    26  17  68 NW14      30.09R WCI  14
NEBRASKA CITY  PTCLDY    23  16  72 NW14G20   30.04S WCI  11
BEATRICE       PTCLDY    25  18  75 NW17      30.09R WCI  11
FALLS CITY     CLOUDY    25  17  72 NW13      30.06R WCI  14

...NORTHERN KANSAS...

CITY           SKY/WX    TMP DP  RH WIND       PRES   REMARKS
GOODLAND       PTCLDY    14  11  87 W5        30.12R WCI   6
HILL CITY      CLOUDY    20  14  77 NW6       30.18R WCI  12
PHILLIPSBURG   CLEAR     19  14  79 W5        30.17S WCI  13
SMITH CENTER   CLEAR     12  10  92 W6        30.17S WCI   3
HAYS           CLEAR     20  14  77 NW6       30.19R WCI  12
RUSSELL        CLEAR     19  13  77 N9        30.17R WCI   8
CONCORDIA      CLEAR     21  16  81 W12       30.14S WCI   9
SALINA         CLEAR     25  16  68 NW12      30.18R WCI  14
TOPEKA         CLEAR     26  19  74 W9        30.10S WCI  17



USA.gov is the U.S. government's official web portal to all federal, state and local government web resources and services.